[Iaude] MPEC L79: 2024 LR1 [a=1.29,e=0.18,i=24.6,H=22.8]

mpec at cfa.harvard.edu mpec at cfa.harvard.edu
Fri Jun 7 04:57:43 EDT 2024


M.P.E.C. 2024-L79                                  Issued 2024 June 7, 08:56 UT

     The Minor Planet Electronic Circulars contain information on unusual
         minor planets, routine data on comets and natural satellites,
         and occasional editorial announcements.  They are published
    on behalf of Division F of the International Astronomical Union by the
          Minor Planet Center, Smithsonian Astrophysical Observatory,
                          Cambridge, MA 02138, U.S.A.
			  
             Prepared using the Tamkin Foundation Computer Network

                              MPC at CFA.HARVARD.EDU
            URL https://www.minorplanetcenter.net/    ISSN 1523-6714

                                    2024 LR1                                    


Observations:
     K24L01R 1C2024 06 05.45036 20 40 12.07 -26 06 35.9          20.0 GVEL079703
     K24L01R 1C2024 06 05.45269 20 40 11.00 -26 05 51.5          19.0 GVEL079703
     K24L01R* C2024 06 05.54590920 39 35.470-25 35 35.02         19.04cVEL079T05
     K24L01R  C2024 06 05.54771720 39 34.505-25 34 59.12         18.83cVEL079T05
     K24L01R  C2024 06 05.55088020 39 33.204-25 33 58.36         18.96cVEL079T05
     K24L01R  C2024 06 05.55606020 39 30.929-25 32 18.35         19.01cVEL079T05
     K24L01R 2C2024 06 06.07616720 36 08.506-22 42 50.19         18.8 GVEL079J04
     K24L01R mC2024 06 06.35772920 34 17.656-21 10 00.12         18.56GVEL079I52
     K24L01R mC2024 06 06.35789920 34 17.576-21 09 56.34         18.47GVEL079I52
     K24L01R mC2024 06 06.35807120 34 17.501-21 09 52.88         18.62GVEL079I52
     K24L01R mC2024 06 06.35824120 34 17.425-21 09 49.75         18.49GVEL079I52
     K24L01R KC2024 06 06.63085020 32 29.544-19 36 52.27         18.9 GVEL079474
     K24L01R KC2024 06 06.63185620 32 29.122-19 36 32.22         18.7 GVEL079474
     K24L01R KC2024 06 06.63286320 32 28.704-19 36 12.10         18.9 GVEL079474
     K24L01R KC2024 06 06.63386920 32 28.296-19 35 51.97         18.8 GVEL079474
     K24L01R KB2024 06 06.80134 20 31 25.49 -18 42 07.4          17.9 GVEL079O46
     K24L01R KB2024 06 06.81076 20 31 21.47 -18 38 59.0                VEL079O46
     K24L01R KB2024 06 06.81949 20 31 17.77 -18 36 04.1                VEL079O46
     K24L01R KB2024 06 06.83616 20 31 10.66 -18 30 30.1          19.4 GVEL079O46
     K24L01R KB2024 06 06.99154420 30 12.919-17 38 40.60         19.0 GXEL079M45
     K24L01R KB2024 06 06.99605820 30 11.075-17 37 10.47         18.9 GXEL079M45
     K24L01R KB2024 06 07.00057420 30 09.156-17 35 39.50         19.0 GXEL079M45
     K24L01R KC2024 06 07.04693120 29 52.154-17 20 08.20         19.2 GVEL079J95
     K24L01R KC2024 06 07.05799420 29 47.647-17 16 26.40         18.8 GVEL079J95
     K24L01R KC2024 06 07.34976320 27 56.35 -15 38 08.7          18.8 GVEL079H21
     K24L01R KC2024 06 07.35101420 27 55.85 -15 37 43.2          19.2 GVEL079H21
     K24L01R KC2024 06 07.35437420 27 54.45 -15 36 35.8          18.6 GVEL079H21
     K24L01R KC2024 06 07.35562620 27 53.93 -15 36 10.4          18.8 GVEL079H21
     K24L01R KC2024 06 07.35681120 27 53.42 -15 35 46.3          19.0 GVEL079H21

Observer details:
474 Mount John Observatory, Lake Tekapo.  Observers A. C. Gilmore, P. M.
    Kilmartin.  Measurer P. M. Kilmartin.  1.0-m f/7.7 Reflector + CCD.
703 Catalina Sky Survey.  Observer D. Rankin.  Measurers B. Gray, D. Rankin,
    F. C. Shelly.  0.68-m Schmidt + 10K CCD.
H21 Astronomical Research Observatory, Westfield.  Observer R. Holmes.
    Measurers T. Linder, R. Holmes, L. Horn.  0.81-m f/4.0 astrograph + CCD.
I52 Steward Observatory, Mt. Lemmon Station.  Observer D. Rankin.  Measurers
    T. Beuden, V. F. Carvajal, D. Fay, J. B. Fazekas, D. C. Fuls, A. R. Gibbs,
    A. D. Grauer, H. Groeller, J. K. Hogan, R. A. Kowalski, S. M. Larson, G.
    J. Leonard, D. Rankin, R. L. Seaman, F. C. Shelly, K. W. Wierzchos.  1.0-m
    prime focus + CCD.
J04 ESA Optical Ground Station, Tenerife.  Observers D. Abreu, M. Micheli, F.
    Ocana, L. Conversi.  Measurers M. Micheli, R. Kresken, F. Ocana.
    1.0-m f/4.4 reflector + CCD.
J95 Great Shefford.  Observer P. Birtwhistle.  0.41-m f/6.3 Schmidt-Cassegrain
    + CCD.
M45 Starhopper Observatory, Sfantu Gheorghe.  Observer F. Ursache.  0.41-m
    f/7.5 reflector + CMO.
O46 Daocheng Glacier Observatory.  Observer Z. Wang.  0.25-m f/8 reflector +
    CMO.
T05 ATLAS-HKO, Haleakala.  Observers L. Denneau, R. Siverd, J. Tonry, H.
    Weiland.  Measurers L. Denneau, N. Erasmus, A. Fitzsimmons, J. Robinson,
    R. Siverd, J. Tonry, H. Weiland.  0.5-m Reflector + CCD.

Orbital elements:
2024 LR1                                                 Earth MOID = 0.0494 AU
Epoch 2024 Mar. 31.0 TT = JDT 2460400.5                 MPC                     
M 324.70858              (2000.0)            P               Q                  
n   0.67521904     Peri.  344.85872     -0.41377029     +0.81351471             
a   1.2867858      Node   259.22714     -0.78606918     -0.54568023             
e   0.1767707      Incl.   24.58059     -0.45922695     +0.20106441             
P   1.46           H   22.82          G   0.15           U   8                  
Residuals in seconds of arc
240605 703  0.1-  0.2-    240606 I52  0.0   0.1-    240606 M45  0.4+  0.2-
240605 703  0.5-  0.7-    240606 474  0.2-  0.0     240607 M45  0.4-  0.1+
240605 T05  0.8+  0.1+    240606 474  0.1-  0.1-    240607 J95  0.3+  0.4+
240605 T05  1.3-  1.2+    240606 474  0.0   0.0     240607 J95  0.1+  0.1+
240605 T05  0.3+  0.9+    240606 474  0.2+  0.0     240607 H21  0.1-  0.1-
240605 T05  1.0+  1.0+    240606 O46  0.1-  0.3+    240607 H21  0.2+  0.1+
240606 J04  0.2-  0.1+    240606 O46  0.4-  0.2+    240607 H21  0.0   0.2-
240606 I52  0.2+  0.3-    240606 O46  0.1-  0.3+    240607 H21  0.0   0.1-
240606 I52  0.1+  0.1+    240606 O46  0.1-  0.1+    240607 H21  0.3-  0.1+
240606 I52  0.1+  0.2+    240606 M45  0.1+  0.3+

Ephemeris:
2024 LR1                 a,e,i = 1.29, 0.18, 25                  q = 1.0593
Date    TT    R. A. (2000) Decl.     Delta      r    Elong.  Phase     V
2024 05 08    00 58 11.5 -78 32 02   0.2342  1.0640    97.1    70.3    22.3
...
2024 05 23    22 30 34.2 -68 12 39   0.1380  1.0593   106.2    66.6    21.0
...
2024 05 31    21 20 02.7 -50 13 51   0.09354 1.0611   118.1    57.5    19.9
...
2024 06 06    20 36 33.6 -23 06 47   0.07514 1.0643   129.7    47.2    19.1
2024 06 07    20 30 07.2 -17 34 24   0.07434 1.0650   130.9    46.1    19.1
2024 06 08    20 23 54.3 -11 57 55   0.07431 1.0658   131.6    45.4    19.0
...
2024 06 14    19 51 06.8 +17 21 53   0.08884 1.0712   126.7    49.5    19.6
...
2024 06 22    19 17 52.0 +38 00 34   0.1316  1.0807   116.1    57.6    20.7
...
2024 07 07    18 38 23.6 +50 18 46   0.2288  1.1050   106.9    61.7    22.0

A. U. Tomatic                (C) Copyright 2024 MPC           M.P.E.C. 2024-L79





More information about the Iaude mailing list